,,Stat6,,Stat2,,Stat8,,Stat9,,Stat10,,Wind1,,Wind1,
time,status,PA1M_AVG,status,PR1M_SUM,status,RH1M_AVG,status,SR1M_AVG,status,TA1M_AVG,status,W1dAve1m,status,W1sAve1m,
2005-03-28, 00:00:01,VALID,919.723,VALID,0,VALID,100,VALID,0,VALID,19.2385,VALID,109,VALID,0.598722,
2005-03-28, 00:01:00,VALID,919.725,VALID,0.2,VALID,100,VALID,0,VALID,19.2619,VALID,110,VALID,0.369855,
2005-03-28, 00:02:00,VALID,919.706,VALID,0,VALID,100,VALID,0,VALID,19.2651,VALID,110,VALID,0.594105,
2005-03-28, 00:03:01,VALID,919.687,VALID,0,VALID,100,VALID,-0.0169808,VALID,19.2683,VALID,102,VALID,0.35774,
2005-03-28, 00:04:01,VALID,919.69,VALID,0,VALID,100,VALID,-0.101885,VALID,19.2829,VALID,109,VALID,0.633168,
2005-03-28, 00:05:01,VALID,919.672,VALID,0,VALID,100,VALID,-0.101885,VALID,19.2658,VALID,126,VALID,0.631177,
2005-03-28, 00:06:01,VALID,919.68,VALID,0,VALID,100,VALID,-0.118866,VALID,19.2633,VALID,113,VALID,0.528088,
2005-03-28, 00:07:00,VALID,919.666,VALID,0,VALID,100,VALID,-0.101885,VALID,19.2636,VALID,126,VALID,0.649023,
2005-03-28, 00:08:00,VALID,919.678,VALID,0.2,VALID,100,VALID,-0.101885,VALID,19.2601,VALID,131,VALID,0.449123,
2005-03-28, 00:09:00,VALID,919.67,VALID,0,VALID,100,VALID,-0.118866,VALID,19.2504,VALID,138,VALID,0.732851,
2005-03-28, 00:10:01,VALID,919.677,VALID,0,VALID,100,VALID,-0.101885,VALID,19.2432,VALID,131,VALID,0.507626,
2005-03-28, 00:11:01,VALID,919.677,VALID,0,VALID,100,VALID,-0.0849042,VALID,19.2405,VALID,135,VALID,0.73601,
2005-03-28, 00:12:00,VALID,919.67,VALID,0,VALID,100,VALID,-0.101885,VALID,19.2373,VALID,115,VALID,0.565589,
2005-03-28, 00:13:00,VALID,919.673,VALID,0,VALID,100,VALID,-0.101885,VALID,19.234,VALID,106,VALID,0.775568,
2005-03-28, 00:14:00,VALID,919.661,VALID,0.2,VALID,100,VALID,-0.101885,VALID,19.231,VALID,104,VALID,0.390625,
2005-03-28, 00:15:00,VALID,919.656,VALID,0,VALID,100,VALID,-0.0849042,VALID,19.2308,VALID,119,VALID,0.171303,
2005-03-28, 00:16:00,VALID,919.653,VALID,0,VALID,100,VALID,-0.118866,VALID,19.2077,VALID,127,VALID,0.704578,
2005-03-28, 00:17:01,VALID,919.632,VALID,0,VALID,100,VALID,-0.0679233,VALID,19.1985,VALID,112,VALID,0.646532,
2005-03-28, 00:18:00,VALID,919.622,VALID,0,VALID,100,VALID,-0.0849042,VALID,19.1657,VALID,100,VALID,0.938834,
2005-03-28, 00:19:00,VALID,919.606,VALID,0,VALID,100,VALID,0,VALID,19.1355,VALID,88,VALID,0.892624,
2005-03-28, 00:20:01,VALID,919.588,VALID,0,VALID,100,VALID,0,VALID,19.1134,VALID,82,VALID,0.880145,
2005-03-28, 00:21:00,VALID,919.581,VALID,0.2,VALID,100,VALID,0.0169808,VALID,19.0935,VALID,89,VALID,0.549162,
2005-03-28, 00:22:00,VALID,919.565,VALID,0,VALID,100,VALID,0,VALID,19.0841,VALID,112,VALID,0.595982,
2005-03-28, 00:23:00,VALID,919.54,VALID,0,VALID,100,VALID,0,VALID,19.0458,VALID,93,VALID,0.716016,
2005-03-28, 00:24:00,VALID,919.516,VALID,0,VALID,100,VALID,0,VALID,19.0066,VALID,92,VALID,0.327934,
2005-03-28, 00:25:01,VALID,919.502,VALID,0,VALID,100,VALID,0,VALID,18.9872,VALID,101,VALID,0.915334,
2005-03-28, 00:26:01,VALID,919.479,VALID,0,VALID,100,VALID,0,VALID,18.9485,VALID,118,VALID,0.728516,
2005-03-28, 00:27:00,VALID,919.468,VALID,0,VALID,100,VALID,0,VALID,18.9457,VALID,124,VALID,0.537574,
2005-03-28, 00:28:00,VALID,919.468,VALID,0,VALID,100,VALID,0.0169808,VALID,18.9164,VALID,122,VALID,0.464844,
2005-03-28, 00:29:01,VALID,919.461,VALID,0,VALID,100,VALID,0,VALID,18.9261,VALID,123,VALID,0.0412427,
2005-03-28, 00:30:01,VALID,919.462,VALID,0,VALID,100,VALID,0,VALID,18.9197,VALID,123,VALID,0.268293,
2005-03-28, 00:31:00,VALID,919.455,VALID,0.2,VALID,100,VALID,-0.0169808,VALID,18.9261,VALID,123,VALID,0.0735518,
2005-03-28, 00:32:00,VALID,919.434,VALID,0,VALID,100,VALID,0,VALID,18.9517,VALID,123,VALID,0.228871,
2005-03-28, 00:33:00,VALID,919.432,VALID,0,VALID,100,VALID,0,VALID,18.9805,VALID,120,VALID,0.392578,
2005-03-28, 00:34:00,VALID,919.429,VALID,0,VALID,100,VALID,0,VALID,18.9713,VALID,37,VALID,0.572027,
2005-03-28, 00:35:01,VALID,919.415,VALID,0,VALID,100,VALID,0,VALID,18.9713,VALID,26,VALID,0.602679,
2005-03-28, 00:36:00,VALID,919.387,VALID,0,VALID,100,VALID,0,VALID,18.9586,VALID,18,VALID,0.546512,
2005-03-28, 00:37:01,VALID,919.369,VALID,0,VALID,100,VALID,0.0169808,VALID,18.952,VALID,13,VALID,0.334847,
2005-03-28, 00:38:00,VALID,919.355,VALID,0,VALID,100,VALID,0,VALID,18.9646,VALID,13,VALID,0.410714,
2005-03-28, 00:39:00,VALID,919.329,VALID,0,VALID,100,VALID,-0.0169808,VALID,18.949,VALID,13,VALID,0.566306,
2005-03-28, 00:40:00,VALID,919.319,VALID,0,VALID,100,VALID,0.0169808,VALID,18.9266,VALID,13,VALID,0.390253,
2005-03-28, 00:41:01,VALID,919.299,VALID,0,VALID,100,VALID,0,VALID,18.9457,VALID,13,VALID,0.335392,
2005-03-28, 00:42:00,VALID,919.299,VALID,0,VALID,100,VALID,0,VALID,18.9716,VALID,13,VALID,0.12407,
2005-03-28, 00:43:00,VALID,919.281,VALID,0,VALID,100,VALID,-0.0169808,VALID,18.9745,VALID,13,VALID,0.256925,
2005-03-28, 00:44:00,VALID,919.272,VALID,0,VALID,100,VALID,0.0169808,VALID,18.9942,VALID,13,VALID,0.172805,
2005-03-28, 00:45:00,VALID,919.255,VALID,0,VALID,100,VALID,0,VALID,18.9586,VALID,8,VALID,0.764382,
2005-03-28, 00:46:01,VALID,919.249,VALID,0.2,VALID,100,VALID,0,VALID,18.8938,VALID,10,VALID,0.59517,
2005-03-28, 00:47:00,VALID,919.25,VALID,0,VALID,100,VALID,0,VALID,18.8943,VALID,21,VALID,0.519804,
2005-03-28, 00:48:01,VALID,919.258,VALID,0,VALID,100,VALID,0,VALID,18.8655,VALID,15,VALID,0.711138,
2005-03-28, 00:49:00,VALID,919.25,VALID,0,VALID,100,VALID,-0.0169808,VALID,18.8265,VALID,11,VALID,0.635538,
2005-03-28, 00:50:00,VALID,919.255,VALID,0,VALID,100,VALID,-0.0169808,VALID,18.7903,VALID,11,VALID,0.520117,
2005-03-28, 00:51:00,VALID,919.263,VALID,0,VALID,100,VALID,0,VALID,18.791,VALID,11,VALID,0.322716,
2005-03-28, 00:52:01,VALID,919.261,VALID,0,VALID,100,VALID,0,VALID,18.7456,VALID,11,VALID,0.674293,
2005-03-28, 00:53:00,VALID,919.269,VALID,0,VALID,100,VALID,0,VALID,18.6972,VALID,11,VALID,0.564453,
2005-03-28, 00:54:01,VALID,919.28,VALID,0,VALID,100,VALID,0.0169808,VALID,18.6647,VALID,11,VALID,0.367733,
2005-03-28, 00:55:01,VALID,919.28,VALID,0,VALID,100,VALID,0,VALID,18.685,VALID,11,VALID,0.081577,
2005-03-28, 00:56:00,VALID,919.281,VALID,0,VALID,100,VALID,-0.0169808,VALID,18.6679,VALID,11,VALID,0.205171,
2005-03-28, 00:57:01,VALID,919.284,VALID,0,VALID,100,VALID,0,VALID,18.6813,VALID,8,VALID,0.489879,
2005-03-28, 00:58:00,VALID,919.284,VALID,0,VALID,100,VALID,0,VALID,18.6743,VALID,7,VALID,0.226042,
2005-03-28, 00:59:00,VALID,919.274,VALID,0,VALID,100,VALID,0,VALID,18.6808,VALID,13,VALID,0.49929,
2005-03-28, 01:00:01,VALID,919.271,VALID,0,VALID,100,VALID,0.0169808,VALID,18.6584,VALID,16,VALID,0.308036,
2005-03-28, 01:01:00,VALID,919.268,VALID,0,VALID,100,VALID,0,VALID,18.6458,VALID,15,VALID,0.171342,
2005-03-28, 01:02:00,VALID,919.279,VALID,0,VALID,100,VALID,0,VALID,18.6517,VALID,14,VALID,0.0456032,
2005-03-28, 01:03:00,VALID,919.251,VALID,0,VALID,100,VALID,0,VALID,18.6743,VALID,14,VALID,0.190662,
2005-03-28, 01:04:00,VALID,919.245,VALID,0,VALID,100,VALID,-0.0169808,VALID,18.7066,VALID,14,VALID,0.122954,
2005-03-28, 01:05:00,VALID,919.233,VALID,0,VALID,100,VALID,0,VALID,18.6944,VALID,14,VALID,0,
2005-03-28, 01:06:01,VALID,919.214,VALID,0,VALID,100,VALID,0,VALID,18.6552,VALID,14,VALID,0,
2005-03-28, 01:07:00,VALID,919.213,VALID,0,VALID,100,VALID,-0.0169808,VALID,18.6162,VALID,14,VALID,0.0012429,
2005-03-28, 01:08:00,VALID,919.201,VALID,0,VALID,100,VALID,0,VALID,18.6135,VALID,14,VALID,0,
2005-03-28, 01:09:00,VALID,919.195,VALID,0.2,VALID,100,VALID,0,VALID,18.6522,VALID,14,VALID,0.00106534,
2005-03-28, 01:10:00,VALID,919.18,VALID,0,VALID,100,VALID,0,VALID,18.6813,VALID,14,VALID,0.10026,
2005-03-28, 01:11:00,VALID,919.172,VALID,0,VALID,100,VALID,-0.0169808,VALID,18.7297,VALID,14,VALID,0.240691,
2005-03-28, 01:12:01,VALID,919.161,VALID,0,VALID,100,VALID,-0.0339617,VALID,18.7327,VALID,14,VALID,0.25,
2005-03-28, 01:13:01,VALID,919.144,VALID,0,VALID,100,VALID,0,VALID,18.7101,VALID,14,VALID,0.358865,
2005-03-28, 01:14:01,VALID,919.125,VALID,0,VALID,100,VALID,0,VALID,18.7069,VALID,14,VALID,0.380526,
2005-03-28, 01:15:00,VALID,919.109,VALID,0,VALID,100,VALID,0,VALID,18.6617,VALID,14,VALID,0.340799,
2005-03-28, 01:16:01,VALID,919.083,VALID,0,VALID,100,VALID,0,VALID,18.6328,VALID,14,VALID,0.180382,
2005-03-28, 01:17:01,VALID,919.061,VALID,0,VALID,100,VALID,-0.0169808,VALID,18.5911,VALID,14,VALID,0.157965,
2005-03-28, 01:18:01,VALID,919.05,VALID,0,VALID,100,VALID,0,VALID,18.5881,VALID,14,VALID,0.172061,
2005-03-28, 01:19:00,VALID,919.027,VALID,0,VALID,100,VALID,0,VALID,18.578,VALID,14,VALID,0.387767,
2005-03-28, 01:20:00,VALID,919.016,VALID,0,VALID,100,VALID,-0.0169808,VALID,18.5717,VALID,14,VALID,0.397396,
2005-03-28, 01:21:01,VALID,919.002,VALID,0,VALID,100,VALID,-0.0169808,VALID,18.5946,VALID,14,VALID,0.522347,
2005-03-28, 01:22:01,VALID,918.989,VALID,0,VALID,100,VALID,-0.0509425,VALID,18.5851,VALID,14,VALID,0.604421,
2005-03-28, 01:23:01,VALID,918.971,VALID,0,VALID,100,VALID,-0.0339617,VALID,18.5717,VALID,15,VALID,0.705487,
2005-03-28, 01:24:01,VALID,918.954,VALID,0,VALID,100,VALID,-0.0169808,VALID,18.5358,VALID,15,VALID,0.700284,
2005-03-28, 01:25:01,VALID,918.945,VALID,0,VALID,100,VALID,0,VALID,18.5298,VALID,15,VALID,0.84189,
2005-03-28, 01:26:01,VALID,918.93,VALID,0,VALID,100,VALID,-0.0339617,VALID,18.4846,VALID,15,VALID,0.70957,
2005-03-28, 01:27:01,VALID,918.914,VALID,0,VALID,100,VALID,0,VALID,18.4913,VALID,15,VALID,0.668445,
2005-03-28, 01:28:00,VALID,918.9,VALID,0,VALID,100,VALID,0.0339617,VALID,18.4938,VALID,15,VALID,0.612043,
2005-03-28, 01:29:01,VALID,918.885,VALID,0,VALID,100,VALID,-0.0339617,VALID,18.5104,VALID,15,VALID,0.566134,
2005-03-28, 01:30:00,VALID,918.881,VALID,0,VALID,100,VALID,0,VALID,18.4779,VALID,15,VALID,0.465183,
2005-03-28, 01:31:01,VALID,918.853,VALID,0.2,VALID,100,VALID,0,VALID,18.4588,VALID,15,VALID,0.359189,
2005-03-28, 01:32:01,VALID,918.841,VALID,0,VALID,100,VALID,0,VALID,18.4652,VALID,15,VALID,0.275195,
2005-03-28, 01:33:01,VALID,918.834,VALID,0,VALID,100,VALID,0,VALID,18.462,VALID,15,VALID,0.392663,
2005-03-28, 01:34:00,VALID,918.808,VALID,0,VALID,100,VALID,0,VALID,18.4325,VALID,15,VALID,0.246761,
2005-03-28, 01:35:01,VALID,918.795,VALID,0,VALID,100,VALID,-0.0339617,VALID,18.4558,VALID,15,VALID,0.401172,
2005-03-28, 01:36:01,VALID,918.772,VALID,0,VALID,100,VALID,-0.0339617,VALID,18.4687,VALID,15,VALID,0.695122,
2005-03-28, 01:37:01,VALID,918.768,VALID,0,VALID,100,VALID,0,VALID,18.4786,VALID,15,VALID,0.702398,
2005-03-28, 01:38:01,VALID,918.757,VALID,0,VALID,100,VALID,-0.0169808,VALID,18.4816,VALID,15,VALID,0.573219,
2005-03-28, 01:39:01,VALID,918.744,VALID,0,VALID,100,VALID,-0.0169808,VALID,18.4975,VALID,15,VALID,0.506055,
2005-03-28, 01:40:00,VALID,918.72,VALID,0,VALID,100,VALID,-0.0339617,VALID,18.4595,VALID,15,VALID,0.621003,
2005-03-28, 01:41:01,VALID,918.71,VALID,0,VALID,100,VALID,-0.0509425,VALID,18.4364,VALID,14,VALID,0.50279,
2005-03-28, 01:42:01,VALID,918.696,VALID,0,VALID,100,VALID,-0.0169808,VALID,18.4461,VALID,14,VALID,0.454167,
2005-03-28, 01:43:01,VALID,918.673,VALID,0,VALID,100,VALID,-0.0169808,VALID,18.4625,VALID,14,VALID,0.539249,
2005-03-28, 01:44:01,VALID,918.668,VALID,0,VALID,100,VALID,-0.0339617,VALID,18.4627,VALID,9,VALID,0.43859,
2005-03-28, 01:45:01,VALID,918.654,VALID,0,VALID,100,VALID,0,VALID,18.4429,VALID,3,VALID,0.261009,
2005-03-28, 01:46:01,VALID,918.63,VALID,0,VALID,100,VALID,-0.0169808,VALID,18.4659,VALID,3,VALID,0.245916,
2005-03-28, 01:47:01,VALID,918.615,VALID,0,VALID,100,VALID,-0.0339617,VALID,18.4717,VALID,3,VALID,0.505022,
2005-03-28, 01:48:01,VALID,918.613,VALID,0,VALID,100,VALID,-0.0169808,VALID,18.4814,VALID,3,VALID,0.401042,
2005-03-28, 01:49:01,VALID,918.6,VALID,0,VALID,100,VALID,-0.0169808,VALID,18.5077,VALID,352,VALID,0.640425,
2005-03-28, 01:50:01,VALID,918.576,VALID,0,VALID,100,VALID,-0.0679233,VALID,18.4625,VALID,343,VALID,0.743641,
2005-03-28, 01:51:01,VALID,918.571,VALID,0,VALID,100,VALID,-0.0169808,VALID,18.4334,VALID,327,VALID,0.566964,
2005-03-28, 01:52:01,VALID,918.554,VALID,0,VALID,100,VALID,-0.0169808,VALID,18.4431,VALID,312,VALID,0.604611,
2005-03-28, 01:53:01,VALID,918.518,VALID,0,VALID,100,VALID,-0.0169808,VALID,18.4495,VALID,343,VALID,0.500908,
2005-03-28, 01:54:01,VALID,918.505,VALID,0,VALID,100,VALID,-0.0339617,VALID,18.4754,VALID,339,VALID,0.0945946,
2005-03-28, 01:55:01,VALID,918.478,VALID,0,VALID,100,VALID,-0.0339617,VALID,18.4915,VALID,339,VALID,0.00762649,
2005-03-28, 01:56:01,VALID,918.467,VALID,0,VALID,100,VALID,-0.0339617,VALID,18.4751,VALID,339,VALID,0.121289,
2005-03-28, 01:57:01,VALID,918.456,VALID,0.2,VALID,100,VALID,0,VALID,18.4945,VALID,321,VALID,0.342391,
2005-03-28, 01:58:01,VALID,918.471,VALID,0,VALID,100,VALID,-0.0339617,VALID,18.4821,VALID,247,VALID,0.371094,
2005-03-28, 01:59:01,VALID,918.477,VALID,0,VALID,100,VALID,-0.0169808,VALID,18.4657,VALID,247,VALID,0.0223722,
2005-03-28, 02:00:01,VALID,918.476,VALID,0,VALID,100,VALID,-0.0169808,VALID,18.4592,VALID,247,VALID,0.0946584,
2005-03-28, 02:01:01,VALID,918.475,VALID,0,VALID,100,VALID,-0.0169808,VALID,18.4399,VALID,247,VALID,0.0121528,
2005-03-28, 02:02:00,VALID,918.467,VALID,0,VALID,100,VALID,-0.0679233,VALID,18.4334,VALID,247,VALID,0.117374,
2005-03-28, 02:03:00,VALID,918.48,VALID,0,VALID,100,VALID,-0.0509425,VALID,18.4655,VALID,255,VALID,0.206174,
2005-03-28, 02:04:00,VALID,918.498,VALID,0,VALID,100,VALID,-0.0339617,VALID,18.5047,VALID,302,VALID,0.245722,
2005-03-28, 02:05:00,VALID,918.496,VALID,0,VALID,100,VALID,-0.0339617,VALID,18.5302,VALID,5,VALID,0.283717,
2005-03-28, 02:06:00,VALID,918.513,VALID,0,VALID,100,VALID,-0.0339617,VALID,18.5531,VALID,5,VALID,0.0225497,
2005-03-28, 02:07:00,VALID,918.526,VALID,0,VALID,100,VALID,-0.0339617,VALID,18.5432,VALID,5,VALID,0,
2005-03-28, 02:08:00,VALID,918.53,VALID,0,VALID,100,VALID,-0.0509425,VALID,18.566,VALID,5,VALID,0.00106534,
2005-03-28, 02:09:00,VALID,918.539,VALID,0,VALID,100,VALID,-0.0509425,VALID,18.5724,VALID,5,VALID,0.155134,
2005-03-28, 02:10:00,VALID,918.547,VALID,0,VALID,100,VALID,-0.0339617,VALID,18.6047,VALID,5,VALID,0.282703,
2005-03-28, 02:11:00,VALID,918.548,VALID,0,VALID,100,VALID,-0.0339617,VALID,18.6137,VALID,10,VALID,0.465843,
2005-03-28, 02:12:00,VALID,918.546,VALID,0,VALID,100,VALID,0,VALID,18.6236,VALID,10,VALID,0.473837,
2005-03-28, 02:13:00,VALID,918.541,VALID,0,VALID,100,VALID,0,VALID,18.6497,VALID,9,VALID,0.304688,
2005-03-28, 02:14:00,VALID,918.536,VALID,0,VALID,100,VALID,-0.0679233,VALID,18.6139,VALID,9,VALID,0.638086,
2005-03-28, 02:15:00,VALID,918.52,VALID,0,VALID,100,VALID,-0.0509425,VALID,18.631,VALID,12,VALID,0.430246,
2005-03-28, 02:16:00,VALID,918.524,VALID,0,VALID,100,VALID,-0.0509425,VALID,18.64,VALID,26,VALID,0.724414,
2005-03-28, 02:17:00,VALID,918.519,VALID,0,VALID,100,VALID,-0.0339617,VALID,18.6432,VALID,26,VALID,0.302202,
2005-03-28, 02:18:00,VALID,918.533,VALID,0,VALID,100,VALID,-0.0339617,VALID,18.6728,VALID,26,VALID,0.128906,
2005-03-28, 02:19:00,VALID,918.541,VALID,0,VALID,100,VALID,-0.0169808,VALID,18.6658,VALID,26,VALID,0.311914,
2005-03-28, 02:20:00,VALID,918.556,VALID,0,VALID,100,VALID,-0.0679233,VALID,18.6594,VALID,28,VALID,0.385174,
2005-03-28, 02:21:00,VALID,918.564,VALID,0,VALID,100,VALID,-0.0169808,VALID,18.6428,VALID,31,VALID,0.316964,
2005-03-28, 02:22:00,VALID,918.572,VALID,0,VALID,100,VALID,-0.0169808,VALID,18.6661,VALID,36,VALID,0.625,
2005-03-28, 02:23:00,VALID,918.563,VALID,0,VALID,100,VALID,-0.0339617,VALID,18.6628,VALID,24,VALID,0.864769,
2005-03-28, 02:24:00,VALID,918.563,VALID,0,VALID,100,VALID,-0.0509425,VALID,18.6206,VALID,25,VALID,0.880451,
2005-03-28, 02:25:00,VALID,918.554,VALID,0,VALID,100,VALID,-0.0509425,VALID,18.5946,VALID,26,VALID,0.791159,
2005-03-28, 02:26:00,VALID,918.539,VALID,0.2,VALID,100,VALID,-0.0509425,VALID,18.598,VALID,17,VALID,0.579215,
2005-03-28, 02:27:00,VALID,918.521,VALID,0,VALID,100,VALID,-0.0509425,VALID,18.6306,VALID,10,VALID,0.595424,
2005-03-28, 02:28:00,VALID,918.508,VALID,0,VALID,100,VALID,-0.0169808,VALID,18.6395,VALID,14,VALID,0.773828,
2005-03-28, 02:29:00,VALID,918.488,VALID,0,VALID,100,VALID,-0.0849042,VALID,18.6146,VALID,8,VALID,0.890625,
2005-03-28, 02:30:00,VALID,918.48,VALID,0,VALID,100,VALID,-0.0509425,VALID,18.595,VALID,5,VALID,0.902249,
2005-03-28, 02:31:00,VALID,918.494,VALID,0,VALID,100,VALID,-0.0509425,VALID,18.6045,VALID,22,VALID,0.695668,
2005-03-28, 02:32:00,VALID,918.5,VALID,0,VALID,100,VALID,-0.0849042,VALID,18.5754,VALID,4,VALID,0.715625,
2005-03-28, 02:33:00,VALID,918.506,VALID,0,VALID,100,VALID,-0.0509425,VALID,18.5498,VALID,3,VALID,0.291969,
2005-03-28, 02:34:00,VALID,918.514,VALID,0,VALID,100,VALID,0.118866,VALID,18.5261,VALID,340,VALID,0.469295,
2005-03-28, 02:35:00,VALID,918.506,VALID,0.2,VALID,100,VALID,0.0849042,VALID,18.5162,VALID,338,VALID,0.0134448,
2005-03-28, 02:36:00,VALID,918.492,VALID,0,VALID,100,VALID,0.0509425,VALID,18.5003,VALID,338,VALID,0.133194,
2005-03-28, 02:37:00,VALID,918.485,VALID,0,VALID,100,VALID,0.0849042,VALID,18.4772,VALID,338,VALID,0.151172,
2005-03-28, 02:38:00,VALID,918.445,VALID,0,VALID,100,VALID,0.0679233,VALID,18.5097,VALID,359,VALID,0.595052,
2005-03-28, 02:39:00,VALID,918.407,VALID,0,VALID,100,VALID,0.0679233,VALID,18.5351,VALID,29,VALID,1.06101,
2005-03-28, 02:40:00,VALID,918.373,VALID,0.2,VALID,100,VALID,0.101885,VALID,18.5095,VALID,41,VALID,1.16797,
2005-03-28, 02:41:00,VALID,918.366,VALID,0,VALID,100,VALID,0.0849042,VALID,18.4968,VALID,45,VALID,0.935594,
2005-03-28, 02:42:00,VALID,918.359,VALID,0,VALID,100,VALID,0.101885,VALID,18.4804,VALID,49,VALID,0.426897,
2005-03-28, 02:43:00,VALID,918.334,VALID,0,VALID,100,VALID,0.101885,VALID,18.4772,VALID,70,VALID,0.4375,
2005-03-28, 02:44:00,VALID,918.312,VALID,0,VALID,100,VALID,0.101885,VALID,18.4546,VALID,70,VALID,0.454799,
2005-03-28, 02:45:00,VALID,918.321,VALID,0,VALID,100,VALID,0.0849042,VALID,18.4449,VALID,70,VALID,0.395531,
2005-03-28, 02:46:00,VALID,918.307,VALID,0,VALID,100,VALID,0.0509425,VALID,18.429,VALID,70,VALID,0.278888,
2005-03-28, 02:47:00,VALID,918.302,VALID,0,VALID,100,VALID,0.0679233,VALID,18.4027,VALID,70,VALID,0.252096,
2005-03-28, 02:48:00,VALID,918.27,VALID,0,VALID,100,VALID,0.101885,VALID,18.4133,VALID,70,VALID,0.187863,
2005-03-28, 02:49:00,VALID,918.273,VALID,0,VALID,100,VALID,-0.0169808,VALID,18.424,VALID,70,VALID,0.257631,
2005-03-28, 02:50:00,VALID,918.262,VALID,0,VALID,100,VALID,0,VALID,18.4632,VALID,55,VALID,0.471354,
2005-03-28, 02:51:00,VALID,918.231,VALID,0,VALID,100,VALID,-0.0339617,VALID,18.4662,VALID,17,VALID,1.13969,
2005-03-28, 02:52:00,VALID,918.224,VALID,0,VALID,100,VALID,-0.0169808,VALID,18.4691,VALID,14,VALID,1.13504,
2005-03-28, 02:53:00,VALID,918.216,VALID,0,VALID,100,VALID,0,VALID,18.453,VALID,31,VALID,0.74657,
2005-03-28, 02:54:00,VALID,918.209,VALID,0,VALID,100,VALID,0,VALID,18.4627,VALID,15,VALID,0.842842,
2005-03-28, 02:55:00,VALID,918.177,VALID,0,VALID,100,VALID,-0.0169808,VALID,18.4758,VALID,8,VALID,1.03616,
2005-03-28, 02:56:00,VALID,918.167,VALID,0,VALID,100,VALID,-0.0169808,VALID,18.4463,VALID,6,VALID,0.777083,
2005-03-28, 02:57:00,VALID,918.166,VALID,0,VALID,100,VALID,-0.0169808,VALID,18.4463,VALID,336,VALID,0.925223,
2005-03-28, 02:58:00,VALID,918.162,VALID,0,VALID,100,VALID,0,VALID,18.4369,VALID,323,VALID,0.438262,
2005-03-28, 02:59:00,VALID,918.166,VALID,0.2,VALID,100,VALID,-0.0509425,VALID,18.4498,VALID,354,VALID,0.705487,
2005-03-28, 03:00:00,VALID,918.16,VALID,0,VALID,100,VALID,-0.0169808,VALID,18.4562,VALID,350,VALID,0.46946,
2005-03-28, 03:01:00,VALID,918.151,VALID,0,VALID,100,VALID,-0.0169808,VALID,18.4562,VALID,347,VALID,1.03678,
2005-03-28, 03:02:00,VALID,918.14,VALID,0,VALID,100,VALID,0,VALID,18.4401,VALID,342,VALID,0.755273,
2005-03-28, 03:03:00,VALID,918.139,VALID,0,VALID,100,VALID,0,VALID,18.4339,VALID,327,VALID,0.734184,
2005-03-28, 03:04:00,VALID,918.125,VALID,0,VALID,100,VALID,-0.0509425,VALID,18.4532,VALID,330,VALID,0.183293,
2005-03-28, 03:05:00,VALID,918.124,VALID,0,VALID,100,VALID,-0.0169808,VALID,18.4495,VALID,24,VALID,0.263263,
2005-03-28, 03:06:00,VALID,918.121,VALID,0,VALID,100,VALID,-0.0339617,VALID,18.4791,VALID,303,VALID,0.43657,
2005-03-28, 03:07:00,VALID,918.112,VALID,0,VALID,100,VALID,-0.0339617,VALID,18.5049,VALID,276,VALID,0.314648,
2005-03-28, 03:08:00,VALID,918.111,VALID,0,VALID,100,VALID,0,VALID,18.524,VALID,274,VALID,0.0800781,
2005-03-28, 03:09:00,VALID,918.103,VALID,0,VALID,100,VALID,-0.0339617,VALID,18.5402,VALID,274,VALID,0.0736861,
2005-03-28, 03:10:00,VALID,918.093,VALID,0,VALID,100,VALID,-0.0169808,VALID,18.5503,VALID,321,VALID,0.508371,
2005-03-28, 03:11:00,VALID,918.096,VALID,0,VALID,100,VALID,-0.0509425,VALID,18.5531,VALID,333,VALID,0.741443,
2005-03-28, 03:12:00,VALID,918.094,VALID,0,VALID,100,VALID,-0.0169808,VALID,18.5503,VALID,358,VALID,0.698038,
2005-03-28, 03:13:00,VALID,918.079,VALID,0,VALID,100,VALID,-0.0169808,VALID,18.5498,VALID,357,VALID,0.868963,
2005-03-28, 03:14:00,VALID,918.069,VALID,0,VALID,100,VALID,-0.0169808,VALID,18.5826,VALID,6,VALID,0.590216,
2005-03-28, 03:15:00,VALID,918.082,VALID,0,VALID,100,VALID,-0.0169808,VALID,18.5983,VALID,5,VALID,0.0756944,
2005-03-28, 03:16:00,VALID,918.075,VALID,0,VALID,100,VALID,-0.0509425,VALID,18.6273,VALID,333,VALID,0.392078,
2005-03-28, 03:17:00,VALID,918.069,VALID,0,VALID,100,VALID,-0.0169808,VALID,18.6472,VALID,2,VALID,0.555596,
2005-03-28, 03:18:00,VALID,918.061,VALID,0,VALID,100,VALID,-0.0339617,VALID,18.637,VALID,355,VALID,0.741642,
2005-03-28, 03:19:00,VALID,918.061,VALID,0,VALID,100,VALID,-0.0339617,VALID,18.5854,VALID,357,VALID,0.931836,
2005-03-28, 03:20:00,VALID,918.034,VALID,0,VALID,100,VALID,-0.0169808,VALID,18.5854,VALID,359,VALID,0.671196,
2005-03-28, 03:21:00,VALID,918.022,VALID,0,VALID,100,VALID,0,VALID,18.5724,VALID,349,VALID,0.541969,
2005-03-28, 03:22:00,VALID,918.021,VALID,0,VALID,100,VALID,-0.0339617,VALID,18.5625,VALID,354,VALID,0.757813,
2005-03-28, 03:23:00,VALID,918.014,VALID,0,VALID,100,VALID,-0.0169808,VALID,18.5722,VALID,345,VALID,0.29082,
2005-03-28, 03:24:00,VALID,918.003,VALID,0,VALID,100,VALID,-0.0339617,VALID,18.598,VALID,314,VALID,0.449751,
2005-03-28, 03:25:00,VALID,917.983,VALID,0,VALID,100,VALID,-0.0339617,VALID,18.6114,VALID,356,VALID,0.365091,
2005-03-28, 03:26:00,VALID,917.971,VALID,0,VALID,100,VALID,0,VALID,18.6176,VALID,2,VALID,0.248197,
2005-03-28, 03:27:00,VALID,917.967,VALID,0.2,VALID,100,VALID,-0.0339617,VALID,18.6146,VALID,352,VALID,0.236458,
2005-03-28, 03:28:00,VALID,917.96,VALID,0,VALID,100,VALID,-0.0169808,VALID,18.608,VALID,352,VALID,0.317894,
2005-03-28, 03:29:00,VALID,917.958,VALID,0,VALID,100,VALID,-0.0339617,VALID,18.6114,VALID,352,VALID,0.377907,
2005-03-28, 03:30:00,VALID,917.954,VALID,0,VALID,100,VALID,-0.0339617,VALID,18.6077,VALID,352,VALID,0.364139,
2005-03-28, 03:31:00,VALID,917.952,VALID,0,VALID,100,VALID,-0.0509425,VALID,18.6181,VALID,352,VALID,0.463728,
2005-03-28, 03:32:00,VALID,917.953,VALID,0,VALID,100,VALID,0,VALID,18.6402,VALID,5,VALID,0.515625,
2005-03-28, 03:33:00,VALID,917.953,VALID,0,VALID,100,VALID,0,VALID,18.6432,VALID,12,VALID,0.742898,
2005-03-28, 03:34:00,VALID,917.954,VALID,0,VALID,100,VALID,-0.0339617,VALID,18.6462,VALID,8,VALID,0.406631,
2005-03-28, 03:35:00,VALID,917.959,VALID,0,VALID,100,VALID,-0.0339617,VALID,18.6462,VALID,8,VALID,0.232195,
2005-03-28, 03:36:00,VALID,917.961,VALID,0,VALID,100,VALID,-0.0339617,VALID,18.6428,VALID,4,VALID,0.484189,
2005-03-28, 03:37:00,VALID,917.966,VALID,0,VALID,100,VALID,-0.0339617,VALID,18.6467,VALID,341,VALID,0.646909,
2005-03-28, 03:38:00,VALID,917.974,VALID,0,VALID,100,VALID,-0.0339617,VALID,18.6303,VALID,334,VALID,0.244549,
2005-03-28, 03:39:00,VALID,917.978,VALID,0,VALID,100,VALID,-0.0509425,VALID,18.6492,VALID,334,VALID,0.000355114,
2005-03-28, 03:40:00,VALID,918.006,VALID,0,VALID,100,VALID,-0.0339617,VALID,18.6817,VALID,334,VALID,0.239702,
2005-03-28, 03:41:00,VALID,917.997,VALID,0,VALID,100,VALID,-0.0339617,VALID,18.7016,VALID,331,VALID,0.35434,